Location: Schommer Observatory
(40.5200°N, 74.4500°W)
Time: 19:09:46
(UTC-05:00)

N. Korean satellite - Pass Details

Date: 10 November 2017
Orbit: 460 x 515 km, 97.2° (Epoch: 18 November)

Event Time Altitude Azimuth Distance (km) Brightness Sun altitude
Rises 18:46:33 0° 199° (SSW) 2,470 10.5 -23.4°
Reaches altitude 10° 18:48:59 10° 218° (SW) 1,603 9.7 -23.8°
Maximum altitude 18:51:31 19° 266° (W) 1,156 9.3 -24.3°
Drops below altitude 10° 18:54:05 10° 313° (NW) 1,621 9.8 -24.8°
Sets 18:56:35 0° 332° (NNW) 2,510 10.5 -25.3°
